Flag for Costa Rica Weather past 2 weeks in San Jose, Costa Rica

Now
66 °F

Clear.


Feels Like: 66 °F
Forecast: 65 / 74 °F
Wind: 6 mph from East

Location: Juan Santamaria

Current Time: Sep 23, 2014 at 10:26:39 PM

Latest Report: Sep 23, 2014 at 10:00 PM


Visibility: 10 mi

Pressure: 30.02 "Hg

Humidity: 94%

Dew point: 64 °F

Location of San JoseLocation

Historic Weather in San Jose — Graph

°F

San Jose temperature yesterday

Maximum temperature yesterday: 79 °F (at 10:00 AM)
Minimum temperature yesterday: 63 °F (at 12:00 AM)
Average temperature yesterday: 70 °F

Past Weeks' High & Low Weather Summary

 TemperatureHumidityPressure
High84 °F (Sep 17, 12:00 PM)100% (Sep 8, 9:00 PM)30.14 "Hg (Sep 8, 9:00 PM)
Low63 °F (Sep 22, 12:00 AM)48% (Sep 16, 12:00 PM)29.90 "Hg (Sep 11, 3:00 PM)
Average71 °F84%30.01 "Hg
* Reported Sep 8 9:00 PM — Sep 23 9:00 PM, San Jose, Weather by CustomWeather, © 2014

Note: Actual official high and low records may vary slightly from our data, if they occured in-between our weather recording intervals... More about our weather records

Advertising

San Jose weather history for previous 24 hours

 ConditionsComfort  
Time TempWeatherWind HumidityBarometerVisibility
9:00 PM
Sep 23
66 °FLight rain. Mostly cloudy.3 mph94%30.05 "HgN/A
8:00 PM66 °FThunderstorms. Partly cloudy.3 mph100%30.04 "Hg5 mi
7:17 PM68 °FThunderstorms. Fog.2 mph94%30.01 "Hg5 mi
7:00 PM70 °FThundershowers. Fog.2 mph88%30.00 "HgN/A
6:00 PM68 °FPartly cloudy.7 mph94%29.97 "HgN/A
5:00 PM68 °FFog.7 mph100%29.97 "Hg3 mi
4:00 PM68 °FLight rain. Fog.7 mph100%29.95 "Hg3 mi
3:37 PM70 °FLight rain. Broken clouds.10 mph94%29.94 "Hg4 mi
3:00 PM73 °FLight rain. Broken clouds.10 mph83%29.94 "Hg5 mi
2:00 PM75 °FBroken clouds.14 mph89%29.94 "HgN/A
1:00 PM77 °FRain showers. Broken clouds.18 mph74%29.96 "HgN/A
12:00 PM79 °FBroken clouds.16 mph70%29.99 "HgN/A
11:00 AM79 °FBroken clouds.13 mph65%30.01 "HgN/A
10:00 AM82 °FPartly sunny.6 mph55%30.03 "HgN/A
9:00 AM77 °FPartly sunny.3 mph65%30.05 "HgN/A
8:00 AM75 °FPartly sunny.5 mph69%30.06 "HgN/A
7:00 AM70 °FSunny.6 mph78%30.05 "Hg10 mi
6:00 AM64 °FSunny.5 mph88%30.02 "Hg10 mi
5:00 AM63 °FClear.5 mph94%30.00 "Hg10 mi
4:00 AM64 °FClear.5 mph88%29.98 "Hg10 mi
3:00 AM66 °FClear.6 mph88%29.98 "Hg10 mi
2:00 AM64 °FClear.5 mph100%30.00 "Hg10 mi
1:00 AM66 °FPassing clouds.3 mph94%30.02 "HgN/A
12:00 AM66 °FPassing clouds.No wind94%30.04 "HgN/A
11:00 PM
Sep 22
66 °FPassing clouds.2 mph100%30.06 "HgN/A
10:00 PM66 °FPassing clouds.2 mph100%30.05 "HgN/A
Weather by CustomWeather, © 2014

See weather overviewHow to use our weather pages